Wind_Speed
28 31 30 28 27 26 25 24 22 21 20 18 17 16 16 16 14 12 10 10 10 10 9 9 8 8 7 8 8 9 10 11 12 12 12 11 12 12 12 12 12 13 14
31 33 31 29 27 26 25 24 23 21 19 18 17 15 14 13 11 10 10 10 10 10 9 9 8 8 8 8 8 9 10 12 12 12 12 12 12 13 12 12 12 13 14
29 33 33 30 27 26 25 23 21 20 19 17 16 14 13 11 11 10 10 10 10 9 10 10 9 9 8 7 8 7 10 10 10 9 10 11 12 13 12 11 11 11 12
34 33 32 30 27 26 25 24 21 19 17 16 16 15 13 12 10 10 10 10 10 9 9 9 9 10 9 8 8 7 8 8 6 4 5 8 9 10 10 10 9 9 10
34 33 31 29 27 26 24 23 21 19 18 16 15 14 13 11 10 10 10 9 9 9 8 8 8 9 8 7 7 7 7 6 4 2 4 4 7 8 9 10 10 9 8
32 32 30 27 26 25 24 22 21 19 18 16 15 14 13 12 10 9 9 9 8 7 7 7 8 8 7 7 6 6 7 7 5 2 1 2 3 5 7 9 9 8 7
30 31 30 27 24 24 24 23 22 19 18 16 15 14 13 12 10 9 8 8 8 7 7 7 7 7 7 6 6 6 6 6 6 5 3 5 3 2 4 7 9 8 7
19 29 28 25 24 23 23 22 21 19 17 16 15 13 13 11 10 9 8 7 7 7 6 6 6 6 6 5 5 6 6 7 7 5 4 5 4 1 2 5 7 7 7
20 30 27 26 25 23 20 20 20 19 17 16 15 13 13 12 10 9 8 7 7 7 7 6 5 5 5 6 6 6 7 7 8 7 4 4 4 3 4 4 5 5 6
16 25 28 27 25 23 22 21 20 19 18 16 15 15 14 13 11 10 8 7 7 6 6 5 5 5 6 7 8 8 9 8 8 8 6 5 4 4 5 6 6 6 7
18 28 27 26 26 25 23 23 22 20 18 17 17 17 16 15 13 12 9 8 8 7 6 5 5 5 6 7 9 10 11 10 8 9 9 8 8 8 7 7 8 9 10
21 27 25 27 27 26 25 24 23 22 20 20 19 19 17 15 14 11 10 9 9 8 7 7 6 6 6 7 9 11 12 11 10 9 9 9 9 9 9 10 11 12 13
21 23 25 27 28 26 26 25 24 22 21 21 20 18 17 16 15 14 13 11 9 9 7 7 9 8 8 8 9 10 12 12 11 10 10 10 11 12 13 13 13 14 15
24 21 21 24 29 28 26 25 23 22 22 22 20 19 18 18 17 15 14 11 8 6 5 5 6 7 9 10 9 10 10 11 12 12 11 12 12 13 15 16 16 17 18
22 22 22 24 28 27 26 26 24 23 23 21 20 20 19 18 18 16 15 14 11 8 7 5 4 5 6 8 10 12 13 13 12 12 14 15 16 16 17 17 17 17 16
26 24 22 23 26 28 29 27 26 25 23 22 22 20 19 18 18 18 18 16 15 12 10 9 8 9 8 8 7 9 12 15 17 17 17 17 19 19 20 18 17 17 16
29 29 26 26 25 28 28 27 26 25 23 22 21 21 18 16 16 15 14 14 13 13 13 14 14 13 14 13 12 11 11 15 18 21 23 23 23 24 23 21 21 19 19
35 34 32 26 24 23 25 26 27 24 22 19 16 16 15 14 14 14 14 13 12 13 16 17 17 16 17 18 18 17 16 18 20 23 25 27 29 29 28 26 24 23 22
37 36 34 31 27 24 24 27 27 24 22 20 18 17 16 15 15 15 15 14 14 16 18 20 21 22 22 21 22 22 21 21 23 25 26 27 27 27 28 29 28 27 25
41 41 41 36 31 28 28 27 27 26 26 25 23 20 20 20 19 19 18 18 18 19 19 22 24 25 26 23 23 25 24 25 26 29 28 29 29 29 29 29 30 30 28
42 42 37 40 34 33 30 29 28 29 27 23 21 22 23 23 22 22 22 23 21 21 20 22 24 25 27 26 25 28 31 30 32 34 32 32 33 33 32 31 31 31 30
38 38 36 38 36 33 32 30 30 25 25 25 23 23 22 23 23 23 23 22 21 23 23 24 26 26 25 25 25 27 25 32 35 34 34 38 38 37 36 37 37 36 34
34 33 35 40 37 34 34 32 30 30 26 23 24 23 21 22 24 21 20 21 22 22 23 22 21 19 21 22 22 23 11 11 18 25 26 28 31 37 39 41 40 40 40
36 33 34 36 35 32 36 36 36 30 28 28 24 25 24 23 21 23 18 18 18 19 20 21 20 21 21 19 22 22 22 23 23 19 21 24 28 28 31 38 45 46 45
35 33 35 34 33 34 36 35 31 26 25 23 19 17 17 16 14 14 14 15 17 18 18 18 17 16 19 18 19 23 25 23 20 24 24 25 28 34 39 41 41 44 47
37 36 36 36 35 35 32 28 25 23 22 19 18 17 15 14 14 14 14 15 15 15 16 18 18 18 21 23 24 23 24 22 24 24 25 26 30 33 35 35 40 45 47
Wind_Direction
177 169 165 163 162 161 157 151 148 145 142 139 135 133 133 135 135 133 129 130 133 135 136 134 125 113 104 103 104 104 101 98 93 85 78 73 65 56 53 54 56 58 59
178 171 167 167 167 165 164 157 155 151 148 145 143 143 142 141 141 137 133 136 141 144 140 131 121 112 107 106 109 110 108 110 101 97 81 74 66 58 50 42 45 52 58
185 175 171 170 171 169 170 165 160 157 153 153 151 149 147 147 147 145 142 143 146 146 141 136 130 124 120 125 126 127 124 122 112 99 78 78 61 52 46 39 33 44 54
179 180 174 172 174 175 174 171 168 164 162 162 159 158 157 159 155 150 145 144 146 147 145 139 134 132 136 142 150 151 142 141 125 86 98 70 57 39 40 35 28 32 49
182 180 179 175 176 179 178 176 174 171 171 170 166 165 165 166 161 157 148 145 147 150 150 145 138 137 144 157 166 167 166 165 154 98 71 66 52 36 39 37 27 20 39
186 183 181 178 178 182 182 180 179 179 178 177 174 172 172 172 170 162 153 147 148 152 154 151 147 144 154 169 176 184 188 192 198 202 78 23 62 50 31 31 28 14 23
185 183 183 181 180 185 185 184 184 184 183 183 183 178 178 178 176 169 161 156 155 159 165 160 154 152 160 179 180 195 209 216 208 204 243 290 217 68 12 23 18 9 6
199 186 178 181 184 187 187 186 186 188 188 187 190 184 185 185 185 181 174 167 167 167 170 167 162 164 170 196 202 211 222 229 230 235 272 226 215 264 333 11 19 11 4
192 189 179 187 187 190 189 190 189 191 192 191 194 193 194 195 194 195 188 186 189 175 168 173 181 180 185 208 224 226 240 246 244 239 245 194 200 253 304 339 358 349 338
183 185 190 191 191 191 193 194 194 196 194 195 197 200 202 204 203 206 203 203 212 203 188 188 198 203 203 219 233 235 244 250 247 244 245 207 235 263 290 313 325 322 318
184 189 192 195 197 197 196 196 197 199 198 199 201 205 209 211 211 213 212 216 224 234 227 230 236 231 229 233 242 242 247 253 256 248 246 253 269 276 280 289 305 310 308
189 191 199 205 204 201 202 203 202 201 202 205 208 211 214 218 220 223 224 227 234 244 253 257 261 261 253 245 249 249 247 248 252 254 256 264 278 279 282 289 293 298 301
195 195 200 205 209 210 209 207 206 207 209 211 214 216 219 225 226 228 230 234 243 258 264 274 266 264 266 261 257 259 246 248 247 250 262 278 283 283 286 286 288 296 299
203 200 207 210 210 214 215 214 214 214 216 217 219 223 225 229 233 236 243 247 248 243 244 292 283 268 268 269 257 251 250 253 250 251 261 274 278 284 293 287 287 291 290
210 208 210 213 208 214 217 218 218 219 221 223 224 227 229 232 237 240 245 247 245 239 247 264 279 309 318 299 258 245 255 272 265 259 265 268 279 286 291 293 289 294 291
218 212 210 213 209 214 217 219 220 221 220 222 225 228 231 238 240 243 244 246 242 243 252 254 266 275 284 292 285 257 265 278 279 274 270 268 274 281 287 290 290 297 297
220 219 215 212 207 216 218 222 221 222 222 223 229 228 228 232 234 232 237 245 252 255 261 260 264 275 272 277 285 280 285 294 293 286 279 278 280 283 285 285 288 293 296
223 222 219 212 210 210 216 218 218 214 211 212 215 217 220 227 236 245 247 252 256 263 268 263 260 269 274 270 280 289 294 297 302 300 285 278 280 283 284 285 286 288 287
230 232 222 217 213 211 204 209 208 212 216 219 222 225 229 236 245 252 257 264 272 272 272 269 267 270 271 268 271 278 281 290 291 295 293 285 283 282 284 286 286 286 282
232 233 228 220 212 210 208 205 204 214 220 224 227 229 235 241 244 249 253 256 261 267 272 272 271 271 273 274 269 271 276 280 281 282 283 283 282 281 282 283 284 284 283
222 223 219 215 214 210 207 207 208 215 219 223 227 239 243 241 243 247 248 251 257 263 274 273 270 270 273 276 269 267 270 273 275 278 278 276 274 277 278 279 279 281 281
207 212 216 214 214 213 212 212 215 219 227 233 236 238 241 243 242 245 246 250 251 262 266 267 268 272 273 269 269 276 280 280 276 278 275 274 273 269 271 276 278 279 280
193 200 211 216 216 214 213 209 214 217 222 233 246 247 243 244 246 245 248 254 259 262 266 267 276 285 281 282 279 279 272 268 279 284 288 278 277 273 272 271 272 275 279
198 204 209 211 211 208 201 208 214 219 225 233 230 240 243 245 245 248 249 252 256 261 264 267 268 271 273 281 278 276 277 292 283 286 284 279 283 278 276 273 270 270 271
196 200 201 204 203 201 205 209 217 216 219 226 219 213 211 213 211 217 233 244 249 252 258 265 270 273 277 276 284 278 290 295 299 293 295 297 289 282 280 281 278 275 272
190 188 191 194 192 200 205 207 205 205 197 189 188 195 202 210 222 236 250 256 259 264 273 279 280 274 276 280 281 283 285 294 294 293 301 300 293 287 280 277 273 274 275
Height
1497 1500 1502 1506 1510 1512 1513 1512 1515 1517 1518 1520 1523 1526 1527 1529 1531 1531 1531 1532 1533 1534 1535 1536 1537 1537 1538 1538 1538 1538 1538 1538 1539 1539 1539 1540 1540 1540 1540 1539 1538 1536 1535
1495 1499 1503 1506 1510 1513 1514 1514 1516 1517 1520 1522 1523 1526 1529 1529 1531 1531 1531 1532 1533 1534 1535 1535 1536 1537 1538 1539 1539 1539 1540 1540 1540 1540 1540 1541 1541 1541 1541 1541 1540 1538 1537
1496 1498 1500 1505 1509 1513 1516 1516 1517 1519 1520 1523 1525 1527 1529 1531 1532 1533 1533 1533 1534 1535 1535 1535 1536 1537 1538 1539 1539 1540 1541 1541 1542 1542 1542 1542 1542 1542 1542 1542 1542 1540 1539
1494 1500 1501 1503 1509 1512 1515 1517 1518 1521 1522 1524 1526 1528 1530 1533 1534 1534 1534 1534 1534 1535 1536 1536 1537 1538 1538 1538 1539 1540 1541 1541 1543 1543 1543 1543 1543 1544 1543 1543 1543 1542 1541
1494 1497 1501 1503 1507 1513 1516 1517 1519 1521 1523 1525 1526 1528 1531 1533 1534 1534 1534 1534 1534 1535 1536 1537 1537 1539 1539 1538 1539 1540 1541 1541 1542 1543 1544 1544 1544 1545 1545 1545 1544 1544 1543
1494 1497 1502 1504 1507 1512 1516 1517 1519 1521 1523 1525 1526 1528 1531 1533 1534 1534 1534 1534 1535 1535 1536 1537 1538 1539 1540 1539 1539 1540 1540 1541 1543 1544 1544 1544 1544 1545 1545 1545 1545 1545 1544
1492 1496 1500 1503 1507 1512 1514 1517 1519 1522 1523 1525 1527 1528 1531 1533 1534 1535 1535 1535 1535 1536 1537 1538 1538 1539 1540 1539 1540 1540 1540 1541 1543 1544 1544 1544 1544 1544 1545 1545 1545 1546 1545
1493 1496 1500 1503 1508 1512 1514 1517 1520 1522 1524 1525 1527 1528 1531 1533 1534 1535 1535 1535 1536 1536 1537 1538 1539 1540 1540 1540 1540 1540 1540 1540 1541 1543 1544 1544 1544 1545 1545 1545 1545 1545 1545
1494 1496 1497 1502 1507 1512 1515 1518 1519 1522 1524 1525 1527 1529 1531 1532 1534 1535 1535 1536 1537 1537 1537 1538 1539 1539 1540 1540 1540 1540 1540 1540 1541 1542 1543 1543 1544 1546 1546 1546 1545 1546 1545
1491 1494 1498 1502 1507 1510 1514 1517 1519 1522 1523 1525 1527 1528 1531 1532 1533 1535 1535 1536 1537 1537 1537 1538 1538 1539 1540 1540 1539 1539 1539 1540 1541 1541 1542 1543 1543 1544 1544 1545 1545 1545 1545
1490 1494 1497 1501 1505 1508 1512 1515 1517 1520 1521 1524 1526 1528 1530 1532 1533 1534 1535 1536 1537 1537 1537 1538 1538 1539 1539 1539 1538 1539 1539 1539 1541 1541 1542 1543 1543 1543 1543 1544 1544 1544 1544
1487 1491 1496 1500 1503 1507 1510 1514 1516 1518 1520 1523 1525 1527 1529 1531 1533 1534 1535 1536 1536 1537 1537 1538 1538 1539 1538 1538 1538 1538 1538 1538 1539 1540 1542 1543 1543 1543 1543 1543 1543 1543 1543
1487 1491 1495 1498 1503 1506 1509 1512 1514 1516 1519 1522 1525 1527 1529 1531 1532 1533 1534 1535 1536 1536 1537 1537 1537 1538 1538 1537 1537 1536 1536 1538 1538 1539 1540 1541 1542 1542 1541 1542 1542 1542 1541
1485 1489 1493 1497 1500 1504 1508 1511 1513 1515 1518 1521 1524 1526 1528 1529 1530 1532 1533 1534 1535 1535 1536 1536 1536 1536 1536 1536 1536 1535 1536 1536 1537 1538 1539 1540 1540 1540 1540 1540 1540 1539 1539
1484 1486 1490 1494 1498 1501 1506 1509 1510 1513 1516 1520 1522 1523 1525 1527 1528 1530 1531 1532 1533 1533 1534 1535 1535 1535 1535 1534 1534 1535 1535 1535 1537 1537 1537 1538 1538 1538 1538 1538 1538 1537 1536
1483 1485 1488 1491 1495 1499 1503 1505 1508 1510 1514 1516 1518 1520 1523 1524 1525 1527 1528 1529 1530 1531 1532 1533 1533 1533 1534 1533 1533 1534 1534 1534 1534 1534 1535 1535 1535 1535 1535 1536 1536 1535 1534
1480 1485 1486 1488 1493 1497 1500 1504 1507 1509 1512 1514 1516 1518 1520 1522 1523 1525 1526 1528 1529 1530 1530 1530 1531 1532 1532 1532 1532 1532 1532 1531 1531 1532 1532 1532 1531 1531 1532 1532 1532 1532 1532
1476 1479 1484 1488 1491 1493 1497 1502 1505 1508 1510 1512 1514 1517 1519 1520 1522 1523 1524 1526 1527 1528 1528 1528 1529 1529 1529 1529 1529 1530 1530 1530 1529 1528 1528 1528 1528 1528 1528 1529 1529 1529 1528
1472 1475 1480 1483 1487 1492 1494 1498 1502 1505 1508 1511 1512 1514 1516 1518 1520 1521 1522 1524 1525 1525 1525 1526 1526 1526 1526 1526 1526 1526 1526 1527 1527 1526 1525 1524 1525 1525 1525 1525 1525 1525 1525
1466 1469 1474 1479 1482 1488 1490 1496 1496 1500 1505 1508 1509 1511 1514 1515 1516 1518 1519 1521 1521 1522 1522 1523 1522 1523 1522 1522 1522 1521 1522 1522 1522 1521 1521 1521 1521 1520 1521 1521 1520 1520 1521
1461 1464 1468 1473 1476 1481 1486 1490 1492 1497 1500 1504 1506 1508 1509 1511 1512 1513 1515 1517 1518 1518 1520 1520 1519 1518 1518 1518 1517 1516 1515 1516 1516 1516 1516 1516 1515 1515 1515 1515 1515 1516 1516
1456 1459 1463 1468 1473 1478 1483 1485 1490 1495 1499 1501 1502 1503 1504 1506 1507 1510 1510 1512 1515 1515 1515 1515 1515 1515 1514 1515 1514 1513 1509 1510 1509 1509 1510 1509 1508 1509 1510 1510 1510 1510 1511
1451 1455 1458 1462 1467 1473 1477 1483 1488 1493 1494 1496 1498 1499 1500 1501 1503 1505 1507 1507 1508 1510 1510 1510 1510 1510 1509 1510 1510 1510 1506 1504 1502 1501 1502 1503 1503 1502 1502 1503 1502 1504 1504
1445 1451 1454 1459 1464 1469 1475 1479 1483 1486 1488 1491 1493 1494 1495 1497 1499 1501 1501 1502 1503 1504 1504 1505 1505 1505 1506 1506 1505 1506 1504 1501 1499 1496 1495 1498 1497 1496 1497 1496 1497 1497 1499
1440 1443 1450 1456 1462 1467 1471 1475 1478 1481 1484 1486 1488 1490 1492 1494 1496 1498 1498 1499 1500 1500 1500 1500 1500 1501 1501 1501 1501 1501 1499 1498 1496 1494 1487 1488 1490 1490 1490 1489 1489 1488 1490
1435 1438 1443 1449 1456 1463 1467 1471 1473 1477 1480 1482 1484 1487 1489 1492 1493 1495 1496 1496 1497 1497 1498 1497 1497 1498 1498 1498 1497 1496 1496 1495 1493 1491 1486 1483 1481 1482 1481 1482 1481 1481 1481